Theta_e
335 333 333 335 337 342 344 346 352 353 353 354 353 356 357 356 357 358 358 356 357 355 352 353 349 349 351 350 350 350 349 348 348 350 353 351 346 349 343 339 342 341 342 341 342 343 344 346 345 339 329 325 323 326 331 335 337 336 338 341 341 341 341 340 339 340 341 340 341 341 340 341 341 340 340 340 339 339 340 340 341 341 342 341 342 344 344 344 343 342 342 343 343 342 343 343 343
335 333 333 335 338 345 348 348 354 355 354 353 354 359 358 356 356 357 358 356 356 354 352 351 349 350 349 349 349 349 350 347 348 349 351 349 348 349 342 342 345 342 343 342 342 342 344 344 337 330 324 324 324 331 337 335 334 335 339 342 342 341 340 339 339 341 341 341 341 340 340 339 339 338 338 339 339 340 340 341 342 343 342 341 343 344 344 343 341 341 341 342 342 343 341 342 343
334 334 333 338 344 349 350 350 354 355 354 352 355 360 358 358 357 357 356 353 353 353 352 350 350 351 349 350 350 351 353 349 349 349 349 349 349 347 340 341 344 343 343 342 342 343 343 336 328 326 324 324 327 335 339 336 332 335 340 342 342 340 340 339 339 340 340 341 340 339 338 337 336 337 337 337 338 339 340 341 342 341 341 341 344 345 344 343 342 341 341 343 343 343 343 344 344
334 333 336 343 349 351 351 352 356 354 353 353 356 360 356 358 357 355 354 351 351 352 352 350 351 351 349 352 350 351 352 350 350 349 348 348 348 344 336 337 342 343 343 342 342 341 336 327 325 326 324 324 329 335 337 335 333 335 339 341 341 339 338 338 338 338 339 339 338 336 335 335 335 335 336 335 336 337 339 340 340 340 340 342 345 345 345 344 343 343 343 345 345 344 345 345 345
335 336 340 347 351 351 351 355 356 354 354 355 358 359 355 355 355 355 355 351 351 351 351 350 351 350 349 350 349 350 352 351 351 350 347 346 347 341 334 336 341 343 341 340 340 335 327 324 325 325 324 325 330 333 333 333 333 335 338 339 340 339 337 337 337 336 336 336 335 335 335 335 335 335 335 335 336 337 338 339 340 340 341 343 345 345 345 345 344 344 345 346 346 345 345 346 345
339 341 345 349 351 350 351 354 355 356 356 356 359 359 355 355 355 356 354 350 351 351 351 350 350 350 348 347 347 348 350 352 351 350 347 344 345 340 334 338 341 341 339 338 335 328 324 323 324 324 324 326 330 331 331 332 333 335 337 339 339 337 336 334 334 333 333 333 332 331 331 331 331 331 332 333 334 336 337 338 340 341 342 344 345 345 344 345 345 346 346 345 345 345 344 345 345
346 347 349 351 351 350 353 355 354 357 357 355 358 358 355 355 355 356 355 351 351 351 351 350 348 350 350 347 348 349 349 352 351 351 346 343 344 338 334 338 340 340 338 336 330 325 324 323 324 324 324 326 330 331 331 332 332 333 335 336 335 334 333 332 332 330 329 328 327 326 326 326 325 326 326 327 329 333 336 338 340 341 343 344 345 344 344 345 345 345 346 345 344 344 344 344 344
351 350 349 352 353 353 355 355 355 358 357 355 356 356 354 354 353 356 359 353 352 351 351 350 346 351 350 346 351 351 349 350 351 351 346 342 343 336 333 337 339 339 337 332 327 324 324 322 324 324 324 327 330 331 332 332 331 333 333 334 332 332 331 330 328 327 326 326 326 326 327 327 326 326 325 324 325 330 335 337 340 341 343 344 345 345 345 345 346 345 345 345 345 345 345 344 344
351 351 349 352 355 355 355 355 357 357 357 356 354 355 354 354 352 356 361 356 351 349 351 350 346 350 348 349 353 351 350 349 350 350 343 342 339 333 333 337 338 337 333 329 324 323 323 323 324 324 325 328 329 330 331 331 331 332 332 332 331 329 328 327 326 326 327 328 329 330 330 331 330 329 328 326 326 327 332 336 339 341 343 344 345 345 345 345 345 345 345 345 344 344 344 344 344
350 351 350 353 355 354 354 355 358 357 357 357 354 354 354 354 353 353 358 357 352 347 349 349 345 348 348 351 354 352 351 349 350 348 343 340 334 330 333 338 338 332 328 325 324 323 323 323 324 325 326 328 328 329 329 329 330 330 330 329 327 326 325 326 327 328 329 331 332 333 333 333 332 331 330 329 327 326 329 334 337 340 342 343 344 345 345 345 345 345 345 344 343 343 343 344 344
352 351 350 356 358 354 354 356 358 359 357 356 355 353 353 353 352 351 354 355 351 344 346 348 345 348 348 350 352 353 352 352 351 346 340 336 331 331 334 337 337 330 325 323 323 322 322 323 325 325 327 327 326 326 326 326 327 327 327 325 325 325 325 327 328 330 332 334 335 335 335 335 334 333 331 330 329 327 327 331 335 338 340 342 344 345 345 345 345 345 344 344 344 344 345 346 346
354 352 352 360 360 356 356 357 358 359 358 358 356 353 352 351 354 358 357 356 347 341 345 346 346 348 351 352 353 354 353 353 351 342 336 335 333 334 336 338 335 328 325 323 323 322 323 324 325 327 328 326 324 324 324 323 324 324 324 325 326 326 326 328 329 332 334 335 337 337 337 337 337 336 334 332 331 329 327 327 331 337 339 341 343 344 345 345 345 344 344 344 344 346 347 347 348
352 351 354 358 358 359 358 357 358 359 361 361 357 353 352 352 355 358 357 354 344 341 344 345 344 347 354 353 353 354 353 352 347 337 337 339 338 337 337 337 333 327 325 323 323 322 323 325 326 327 326 323 322 323 323 323 323 324 325 325 326 325 326 328 329 332 334 335 337 338 338 339 338 339 337 336 334 332 331 328 328 330 335 339 342 344 345 345 345 344 344 344 345 347 347 348 348
351 350 357 359 357 361 360 358 359 360 361 359 356 352 351 352 354 354 354 355 348 344 343 343 343 346 354 353 353 354 351 349 344 338 343 345 341 337 337 336 331 327 324 323 323 322 324 325 326 327 325 322 322 323 324 325 325 325 325 325 325 325 326 327 329 331 332 333 337 338 338 339 338 339 339 338 337 336 336 335 331 328 329 333 339 343 344 345 345 344 344 344 345 347 347 347 348
354 352 358 362 359 360 360 361 361 360 361 359 355 352 351 352 353 352 354 357 352 344 341 344 344 346 355 353 354 352 349 347 344 345 348 348 344 338 337 336 331 326 324 323 323 322 324 326 326 326 324 322 323 324 325 325 325 325 325 324 324 324 325 326 328 328 329 332 336 338 339 338 338 339 340 340 339 339 339 338 336 333 330 330 334 339 342 344 345 344 344 344 345 346 346 347 348
355 353 357 360 358 359 361 362 359 360 363 360 355 351 353 352 352 353 353 355 351 342 343 346 344 346 349 348 350 348 346 347 347 349 349 348 343 338 337 336 330 326 325 323 323 322 324 326 326 326 323 323 324 324 325 324 325 325 323 323 323 324 325 325 326 326 327 330 335 338 338 338 338 340 342 342 342 342 342 341 339 337 334 330 330 332 336 342 344 343 343 343 344 345 344 345 348
354 357 360 358 358 362 362 360 359 363 364 359 354 352 357 356 352 354 354 354 348 343 344 346 346 348 344 341 346 347 347 349 350 350 348 346 341 338 339 336 330 326 325 323 323 322 325 326 327 325 323 323 324 324 324 325 325 323 321 322 323 323 324 325 325 325 326 330 333 337 337 337 338 340 342 344 344 344 344 345 344 342 339 335 332 329 330 336 339 340 341 342 342 343 344 346 348
357 363 358 355 362 365 362 359 356 359 360 358 355 352 358 358 353 353 355 355 349 345 345 345 348 349 344 343 348 349 350 350 350 349 347 345 340 338 337 333 328 325 324 323 322 323 325 326 326 324 324 324 324 324 324 324 324 322 321 322 322 323 323 324 324 324 326 329 332 335 335 335 337 339 341 344 345 344 345 347 347 346 345 343 338 332 328 328 332 337 338 339 341 342 346 348 348
359 361 356 360 368 362 356 354 353 355 355 356 355 352 355 356 352 353 358 357 352 351 349 345 348 349 347 347 350 350 350 350 349 346 344 342 338 334 332 329 326 324 323 323 321 322 324 325 325 324 324 325 324 323 322 323 323 321 322 322 322 323 323 323 324 323 324 328 331 332 332 333 336 337 337 342 344 343 345 348 349 349 348 348 344 338 332 329 331 335 338 340 343 345 347 348 347
358 358 361 367 365 358 354 351 351 353 353 354 353 353 355 353 351 354 358 357 355 355 349 345 348 350 350 350 352 350 349 348 345 341 338 337 334 328 326 325 323 323 323 321 321 322 324 324 324 324 324 325 324 323 322 322 322 321 322 322 322 322 322 322 323 321 323 328 330 329 330 331 333 333 334 339 342 341 343 348 350 350 350 351 349 345 341 339 338 340 343 344 346 348 348 348 347
358 359 367 365 356 359 357 350 351 351 353 354 352 356 356 353 352 354 357 357 359 354 346 345 348 350 351 352 352 350 348 346 343 340 334 332 331 327 324 324 323 323 322 321 321 321 322 323 323 324 324 325 325 323 321 322 322 322 322 322 322 322 322 322 322 322 322 326 328 329 328 329 331 332 333 337 339 338 341 346 350 351 351 352 351 349 346 344 344 345 347 348 348 349 348 349 346
359 360 360 356 352 358 357 351 352 352 353 353 353 357 356 353 353 353 355 358 359 353 345 344 345 347 348 350 351 350 348 345 343 341 334 330 327 325 325 324 323 323 322 321 320 321 322 323 323 323 324 326 326 323 322 322 321 322 322 322 322 321 322 322 322 322 321 323 325 326 326 327 330 331 332 334 336 335 336 341 346 348 347 348 349 350 348 347 347 346 347 348 349 349 348 347 346
360 359 352 352 353 357 356 352 353 352 352 353 355 355 353 354 354 352 354 355 354 351 348 344 343 345 345 347 349 348 347 344 341 339 333 329 326 325 325 323 323 323 321 321 320 321 322 323 323 323 324 325 326 324 322 322 321 321 322 321 321 321 321 321 321 322 321 323 322 323 323 324 326 329 332 333 334 333 333 336 338 341 342 343 344 346 348 348 349 348 348 348 348 348 347 346 346
357 360 355 352 353 355 356 353 353 353 353 354 354 353 352 355 355 353 354 352 351 352 351 346 343 345 346 347 347 346 345 342 340 339 336 329 325 323 324 324 323 322 322 321 321 321 322 323 323 323 323 325 327 325 322 322 322 322 322 322 322 322 322 321 322 322 322 321 321 322 322 322 323 325 330 333 335 334 334 335 335 337 340 342 342 344 346 347 350 350 350 349 349 348 347 347 346
355 359 355 353 354 355 356 354 354 354 353 354 353 353 353 354 354 354 353 352 352 353 353 348 344 347 348 347 346 345 344 342 340 343 344 339 334 329 326 326 324 324 323 323 323 322 322 322 323 323 324 325 327 326 323 322 322 321 322 321 322 322 322 321 321 322 322 322 322 322 322 322 322 323 326 329 333 335 335 337 336 334 336 339 340 342 345 347 349 351 351 351 350 350 349 349 347
356 355 352 355 357 355 355 355 354 354 354 354 354 354 353 352 353 355 353 350 353 353 351 346 345 347 348 347 346 345 344 343 343 343 345 346 343 338 332 330 328 326 325 325 325 324 324 324 324 324 324 325 326 326 324 322 322 321 321 321 322 322 321 321 322 321 322 322 321 322 323 324 324 323 323 324 328 333 336 337 337 336 336 336 336 337 341 345 347 350 351 351 351 351 349 349 348
352 351 353 358 358 355 355 355 353 354 354 353 355 356 355 352 355 360 354 350 354 354 348 342 345 348 348 348 347 346 345 343 343 343 345 347 346 344 340 337 333 330 329 329 328 327 326 326 325 325 326 326 327 327 325 323 322 322 322 321 321 322 322 322 322 322 322 323 324 325 326 328 328 325 323 324 324 328 333 335 337 338 337 336 336 335 336 339 342 344 346 347 348 347 346 345 345
350 352 357 358 356 357 355 355 355 354 355 353 354 357 355 354 358 361 353 351 353 353 347 340 345 347 346 348 348 347 346 344 344 343 345 346 346 346 344 342 339 337 335 334 333 332 330 328 328 327 326 326 327 327 326 325 323 323 322 322 321 321 322 321 322 322 322 324 327 328 329 329 329 327 326 327 327 326 329 333 335 337 337 336 337 337 336 337 337 338 340 342 344 344 343 342 344
350 354 364 364 363 365 357 354 355 354 356 354 353 357 359 360 360 357 353 353 354 354 349 341 343 346 345 346 347 347 347 346 346 345 344 344 345 345 345 344 342 341 339 338 338 337 337 335 334 331 328 328 327 327 327 326 324 323 322 322 322 322 322 322 322 322 322 323 327 329 330 329 330 329 330 331 330 330 331 332 334 336 338 338 339 338 338 340 341 340 338 339 341 341 341 342 345
356 356 366 371 366 368 360 354 357 355 355 355 353 356 365 365 357 354 355 354 354 355 353 347 343 344 344 344 344 346 348 348 347 345 344 345 345 346 345 344 343 342 341 340 341 340 340 341 340 338 333 330 328 327 327 327 326 324 323 323 323 323 322 323 322 323 322 322 323 327 329 328 327 328 329 330 331 332 332 332 333 336 339 339 340 340 340 342 344 345 342 339 337 338 339 342 344
362 357 364 368 359 366 365 353 357 358 356 355 353 355 369 371 356 353 356 353 352 355 355 352 347 344 344 343 342 343 345 347 347 346 346 346 346 346 346 345 344 344 343 342 341 341 342 342 342 341 340 337 332 330 328 326 327 326 324 323 323 323 323 323 323 323 323 323 323 325 327 327 325 325 325 326 328 329 329 330 333 337 339 340 341 341 342 342 342 345 345 340 335 335 337 340 343
365 357 360 359 355 367 369 354 355 360 358 355 353 358 369 369 357 353 355 353 351 352 354 355 352 349 345 343 343 342 342 343 343 344 343 343 344 344 344 344 344 344 343 342 341 342 342 342 342 343 342 342 340 337 334 331 329 327 325 324 324 324 323 323 323 324 324 324 324 325 326 326 326 325 325 325 324 325 327 327 332 338 340 340 341 341 341 342 341 344 347 343 335 332 335 340 342
364 360 358 357 357 364 365 358 353 356 361 357 355 362 367 362 352 353 356 353 351 351 353 353 354 353 350 347 345 344 345 345 344 343 342 341 341 342 342 342 343 344 342 341 340 340 340 342 342 343 343 342 343 342 341 338 336 333 333 334 333 330 327 327 327 329 330 330 330 328 328 328 328 329 329 328 325 325 327 328 332 339 341 341 342 341 341 342 341 343 347 347 341 333 335 340 341
357 357 354 357 362 358 359 362 354 353 363 363 357 359 363 359 353 354 356 354 352 352 352 352 353 353 353 353 350 349 348 348 349 348 346 344 342 342 342 342 342 343 343 342 340 338 339 340 342 343 343 344 343 343 342 341 341 341 342 342 342 339 335 334 335 337 337 337 336 335 334 334 334 333 332 330 327 328 331 332 334 339 341 341 342 342 342 342 342 344 346 349 346 339 336 339 340
355 354 350 352 356 356 359 362 356 356 363 364 361 359 361 359 354 354 355 355 353 351 352 352 352 351 352 352 352 352 351 350 350 350 350 348 347 346 343 343 342 342 343 342 341 341 341 342 343 344 345 344 344 344 344 343 342 343 344 343 343 342 340 339 339 340 340 340 340 339 339 339 339 337 335 331 330 332 334 335 337 338 340 341 341 342 342 342 343 345 346 348 349 344 338 338 339
357 355 350 349 352 353 358 359 356 358 361 363 363 362 362 359 357 355 354 356 354 352 353 351 351 352 351 352 351 351 351 350 350 350 350 350 350 350 348 347 345 342 342 342 343 345 345 345 346 346 346 345 345 345 344 344 343 342 343 343 343 342 341 341 341 341 341 341 341 341 341 341 342 341 339 336 334 335 337 338 340 341 341 342 342 342 342 342 343 346 348 349 349 347 341 337 338
352 353 348 348 349 351 354 355 355 358 360 362 361 362 363 360 359 355 351 355 354 352 352 351 352 352 351 351 350 350 349 349 350 350 350 350 350 350 349 350 348 346 345 345 347 348 348 348 348 347 346 345 345 345 345 344 344 343 343 343 342 341 341 341 341 341 341 341 341 341 342 342 342 342 342 341 340 339 340 340 341 342 342 342 342 342 342 342 343 345 348 348 348 348 346 341 340
343 348 348 345 345 348 350 354 359 358 357 361 361 361 361 359 358 353 350 354 354 351 351 351 352 352 351 351 350 349 349 349 351 350 349 350 349 349 349 350 350 349 348 348 349 349 349 349 348 347 346 345 344 345 344 344 344 343 342 342 342 342 341 341 341 341 341 341 342 342 341 342 343 343 344 343 343 343 342 343 343 343 344 343 341 340 341 341 342 344 346 347 347 348 348 346 343
335 341 345 343 343 345 345 353 362 358 356 364 364 360 362 362 361 354 350 353 353 352 352 351 352 352 352 351 351 350 350 351 351 351 351 349 349 350 349 349 349 349 349 348 349 349 349 349 348 346 345 345 344 344 344 344 344 343 343 342 342 342 342 341 341 341 342 342 342 342 342 343 343 343 344 344 344 344 344 345 345 345 345 344 342 342 341 340 341 342 343 346 348 349 349 349 346
331 336 339 338 342 342 340 349 359 357 353 365 367 362 365 365 362 359 350 348 351 352 352 352 351 352 352 351 352 352 352 352 352 351 351 349 349 350 350 349 350 349 349 349 348 348 348 348 346 346 345 344 344 344 343 343 343 344 343 342 342 343 342 342 342 342 342 343 342 343 343 343 343 343 344 345 345 345 346 346 346 344 343 343 343 342 343 342 340 340 342 347 350 351 350 350 349
330 334 336 336 340 344 346 350 356 355 348 359 367 360 364 366 359 359 353 348 350 351 350 351 351 351 352 352 352 353 353 352 352 352 351 351 349 349 349 349 349 349 349 348 348 347 347 347 346 345 345 344 343 343 343 343 343 344 343 343 343 343 343 343 343 342 341 341 342 342 343 343 343 344 344 345 346 346 346 346 346 345 345 343 343 343 343 344 343 342 342 345 348 350 350 351 351
326 331 336 337 340 348 357 356 357 357 350 356 360 350 357 369 360 356 356 354 353 351 349 350 350 350 351 352 352 352 352 352 352 353 352 351 348 349 350 349 349 349 349 349 348 349 349 348 347 346 345 345 344 343 342 343 343 343 344 343 343 343 343 343 342 342 341 340 341 341 342 343 343 344 345 345 346 347 346 347 348 348 348 346 345 345 344 344 345 344 345 347 348 350 351 351 352
326 333 337 338 342 352 358 354 352 354 351 354 352 346 352 363 363 359 357 357 357 354 353 351 349 350 351 351 351 351 352 352 353 353 353 352 350 349 350 349 350 350 351 352 351 351 350 349 348 347 347 345 344 343 343 342 342 343 343 342 342 342 342 342 341 341 340 340 341 343 343 343 344 344 346 346 347 348 348 348 349 349 349 348 347 347 346 345 344 344 346 348 348 349 351 351 352
329 337 340 342 345 350 354 350 347 348 348 349 349 348 346 349 357 359 354 358 359 356 357 353 349 350 351 351 351 351 351 352 353 353 354 353 351 351 351 351 352 351 352 352 351 351 351 350 349 348 347 346 345 344 343 343 342 342 342 341 341 341 341 341 340 341 341 342 342 344 345 345 346 346 348 349 349 350 351 351 351 351 351 351 351 351 351 349 347 347 347 347 348 350 350 351 351
330 333 340 344 343 346 350 346 342 342 342 342 344 344 343 347 358 359 352 355 359 357 358 354 349 350 350 351 351 351 352 352 353 352 352 352 352 352 352 352 352 353 353 352 352 352 351 351 351 349 348 347 347 347 346 347 346 345 345 344 343 343 343 343 343 343 344 345 345 346 347 347 349 351 352 353 352 351 353 354 353 352 351 352 353 353 353 353 352 352 350 349 349 350 350 351 351
326 326 334 338 337 342 345 342 340 340 338 338 340 341 341 348 359 358 353 355 356 355 354 352 349 349 351 352 351 352 352 352 351 352 351 350 351 351 353 353 353 354 354 353 353 352 352 352 352 351 350 349 348 348 348 349 349 349 349 349 349 348 348 347 348 348 348 349 350 350 351 352 353 355 356 354 351 349 353 355 354 354 353 353 353 353 353 354 354 354 353 352 351 351 351 351 351
323 327 332 332 334 340 346 352 345 336 335 335 338 340 337 340 353 358 355 357 356 351 353 353 349 349 350 351 351 352 353 352 351 351 350 349 349 350 350 350 351 351 351 350 350 350 351 350 351 350 350 349 349 349 350 350 350 350 350 350 351 351 351 352 352 352 352 353 353 354 354 356 357 356 355 354 352 349 350 351 352 353 354 354 354 353 352 352 353 353 353 353 352 351 351 351 351
324 330 330 326 332 336 337 344 339 330 333 333 336 340 336 334 346 355 352 353 355 352 353 356 353 349 349 350 351 351 351 351 350 350 349 347 347 347 347 346 347 347 347 348 348 348 348 349 349 350 350 350 350 350 350 350 350 350 351 351 352 352 352 352 352 353 353 354 355 356 356 356 356 355 353 352 350 347 346 347 349 350 351 353 353 353 353 352 353 353 354 354 353 353 352 351 351
326 329 330 324 326 328 326 329 330 330 331 329 333 338 336 336 340 345 350 352 352 350 349 350 349 348 349 350 350 350 351 350 349 349 347 346 345 346 346 346 346 346 346 347 349 348 348 350 350 349 350 351 351 350 349 348 349 350 351 351 350 350 350 350 352 352 353 355 355 355 356 355 354 352 349 347 343 340 340 341 344 346 346 348 351 352 353 354 354 353 353 354 355 354 354 353 352
326 327 329 324 324 324 324 327 328 327 328 328 334 337 337 340 339 343 351 347 344 345 345 346 348 347 349 350 349 350 350 350 348 348 346 345 346 345 347 348 348 347 347 347 347 347 348 349 349 347 347 348 348 349 347 345 346 348 348 349 348 349 350 351 352 353 353 354 354 355 355 354 351 347 344 342 338 335 334 336 340 343 345 347 349 350 351 353 353 353 353 354 355 354 354 354 353
327 329 329 325 328 326 324 328 326 322 329 332 332 336 339 340 339 342 344 340 338 340 344 347 347 348 349 350 351 350 350 350 348 348 346 345 346 346 348 348 349 349 348 347 346 345 346 346 346 345 345 345 345 345 345 344 345 346 346 348 350 351 351 351 350 351 351 352 353 353 351 350 348 345 343 339 335 333 333 336 339 342 344 345 346 348 348 349 351 352 352 352 352 352 352 352 352
325 328 326 322 330 333 326 327 328 326 333 338 334 339 347 346 345 346 343 341 340 340 344 348 347 348 349 349 351 350 350 349 348 347 346 346 346 347 347 346 349 350 348 349 346 343 343 344 345 345 345 344 344 344 346 346 346 348 348 349 350 349 348 348 348 348 349 349 350 350 349 347 346 343 340 335 333 333 335 337 339 340 341 341 342 343 344 345 348 351 349 348 349 350 351 351 349
325 323 324 325 328 337 330 324 327 327 326 334 335 342 353 348 341 350 353 351 348 345 346 346 346 348 348 349 351 349 349 349 348 347 346 346 346 346 346 344 345 349 348 348 346 342 342 343 343 344 344 344 344 345 346 347 347 347 346 344 342 342 342 343 344 346 346 347 347 347 346 344 340 336 333 332 333 336 337 338 339 339 340 340 340 341 342 344 347 348 346 346 348 350 351 352 352
329 323 326 328 323 332 332 322 325 324 320 331 339 343 350 343 338 352 358 354 352 351 351 346 344 347 347 349 350 349 349 348 348 348 345 346 347 345 344 342 343 347 347 347 345 341 341 342 342 343 344 344 345 345 345 345 344 340 335 332 329 328 329 331 334 336 337 339 339 339 337 335 332 331 331 333 335 337 338 338 339 339 339 340 341 341 342 343 345 345 345 345 346 348 351 352 352
329 326 326 327 322 327 326 320 324 322 320 336 344 343 345 344 349 360 359 357 356 353 354 351 347 346 346 347 349 348 350 349 348 348 345 346 346 345 343 343 344 346 346 345 343 341 341 341 343 343 344 344 343 343 343 340 334 330 328 327 325 323 324 325 326 326 327 327 327 328 328 328 329 331 334 336 337 337 338 337 338 338 338 340 340 342 343 344 344 345 346 346 346 348 350 351 352
327 326 325 328 331 330 324 321 323 321 324 334 338 339 346 350 358 365 360 360 358 355 356 355 348 345 345 346 348 349 349 350 348 347 345 346 346 345 343 342 344 344 343 343 341 341 342 342 343 344 342 343 343 341 338 330 325 327 329 330 329 328 327 326 325 324 324 324 324 325 326 326 328 331 336 339 338 338 337 337 336 337 337 338 340 342 343 344 344 345 347 348 347 349 351 351 352
325 326 324 325 328 326 323 322 321 324 334 339 336 338 351 358 356 359 360 358 354 352 355 353 345 343 346 347 347 348 349 348 348 345 345 346 346 345 344 343 343 343 341 342 342 342 343 342 343 343 342 342 340 334 328 324 326 330 331 331 332 332 331 330 327 326 327 328 328 327 327 327 327 329 333 338 339 338 337 336 336 335 335 336 338 340 342 343 344 345 346 347 347 348 350 350 351
331 330 327 326 325 323 324 321 320 328 336 342 340 338 351 363 352 352 361 358 351 348 348 347 344 343 345 347 346 346 349 346 346 345 344 346 346 345 344 343 342 343 342 342 343 342 342 343 343 342 340 336 331 328 326 328 330 331 331 333 334 334 332 332 330 330 331 332 331 330 330 330 329 329 332 337 339 338 337 336 335 334 334 334 335 337 339 342 343 343 344 345 346 346 348 349 351
Wind_Speed
21 22 21 19 20 18 15 11 2 1 1 1 2 2 1 1 1 1 1 2 1 2 4 7 20 22 10 6 10 6 6 12 8 4 3 3 10 17 25 31 28 28 27 26 26 24 22 19 17 15 14 13 12 12 13 12 13 14 14 13 12 11 10 10 10 9 9 8 7 7 6 6 5 5 4 4 3 3 2 2 2 2 1 1 1 1 2 2 3 3 3 4 4 4 4 4 4
23 21 21 19 21 15 11 9 0 0 1 2 2 1 1 0 2 3 2 4 1 3 6 14 23 16 6 10 11 5 5 12 10 4 1 4 17 24 29 31 28 28 26 26 25 24 22 19 17 15 14 13 13 13 12 12 14 15 14 13 12 11 10 10 10 9 8 8 7 6 6 6 5 5 4 3 2 2 1 1 2 2 1 1 1 2 2 3 3 3 3 3 3 4 5 4 5
22 22 23 21 20 11 5 6 1 1 1 3 3 2 1 0 2 2 2 3 1 7 11 18 19 9 8 11 8 3 4 9 11 5 1 11 23 29 33 31 27 27 26 25 24 23 21 19 17 15 14 13 14 12 12 13 13 14 13 12 12 11 10 10 10 9 8 7 7 6 6 6 5 5 4 3 2 1 1 2 2 2 1 2 2 2 2 3 3 3 4 4 4 4 4 4 4
22 22 22 22 16 5 2 2 1 2 2 2 2 2 2 1 1 1 3 2 4 10 13 17 11 5 7 8 5 3 4 7 10 6 3 15 23 31 36 31 28 26 25 23 22 22 19 18 17 15 14 13 13 12 12 13 13 13 13 12 11 11 10 9 9 9 8 7 6 5 5 5 5 5 4 4 3 2 2 2 2 2 2 2 3 3 3 3 3 4 4 4 4 4 4 3 4
22 22 22 21 10 2 2 1 1 2 2 2 2 3 1 1 0 1 3 2 7 10 11 15 6 4 5 5 6 1 4 8 10 8 4 15 25 32 36 31 28 26 24 23 21 20 19 18 16 15 14 13 13 13 13 13 13 13 12 12 11 10 9 9 8 7 7 6 5 5 4 4 4 4 4 4 3 3 3 3 3 3 3 3 3 4 4 4 4 4 4 3 3 4 4 4 5
22 24 23 17 5 2 2 1 2 2 2 2 2 2 0 2 1 1 3 4 10 9 11 13 5 7 4 3 5 1 3 4 7 11 7 17 29 33 34 30 28 25 24 22 21 20 18 18 16 15 14 12 12 13 13 13 13 13 12 11 10 10 9 8 7 6 6 6 5 5 4 4 4 4 3 3 3 3 2 3 3 3 3 3 4 4 4 4 3 3 2 2 2 3 4 5 5
19 21 15 9 2 3 2 1 2 1 1 1 2 2 1 2 1 2 3 6 9 7 10 10 7 11 2 3 4 2 4 2 3 11 12 21 32 33 33 31 27 25 24 22 21 20 18 18 17 15 13 12 12 13 13 13 13 12 11 10 9 9 8 7 7 6 6 5 5 5 4 4 4 4 4 3 3 3 3 3 3 4 3 3 4 4 4 3 2 2 1 1 1 2 3 3 4
16 14 6 3 0 1 1 1 2 1 1 1 2 2 2 2 1 1 1 4 5 7 10 10 10 9 1 3 4 2 4 3 3 9 17 27 33 33 32 30 27 25 23 22 21 19 18 17 17 15 14 12 12 13 12 12 12 12 10 9 8 8 8 7 7 6 6 5 5 4 4 4 4 4 4 4 4 4 4 4 4 4 4 3 3 3 3 2 1 1 1 1 1 2 3 3 4
15 9 3 1 1 1 1 1 1 1 2 1 2 3 1 1 2 0 2 3 3 5 9 11 9 4 1 4 4 3 2 2 5 11 22 31 33 32 31 29 25 25 23 22 21 19 18 17 17 15 15 13 13 13 12 12 12 11 10 9 8 8 8 7 7 6 6 5 5 5 5 5 4 4 4 4 5 5 5 4 4 4 4 3 3 3 2 1 1 0 1 1 2 3 3 4 5
12 5 2 2 1 1 1 2 1 1 2 2 2 2 3 3 2 1 2 2 1 2 8 11 7 5 6 5 4 2 2 2 7 17 28 32 32 31 30 27 24 23 23 22 20 19 18 17 17 15 15 13 12 13 12 12 12 11 10 9 9 8 8 8 7 6 6 6 6 5 5 5 5 5 5 5 5 6 5 5 5 4 4 4 3 2 2 1 0 0 0 1 2 3 4 5 6
6 4 2 1 2 1 2 1 1 2 2 2 2 2 3 2 1 2 3 3 1 4 10 11 6 9 8 3 2 1 4 4 9 23 33 32 31 30 29 26 23 22 21 21 19 19 18 17 16 15 15 14 13 13 12 12 11 11 10 10 9 8 8 8 7 6 7 6 6 6 6 6 5 5 5 5 6 6 6 6 6 5 5 5 4 3 2 1 1 1 1 1 2 3 4 5 6
1 1 1 1 1 2 2 1 1 1 2 2 1 2 3 1 2 2 3 4 2 7 10 12 8 11 6 3 2 2 7 6 13 29 34 31 30 29 28 26 23 22 20 20 19 19 18 18 17 16 15 14 13 12 12 12 11 11 10 10 9 9 9 8 7 7 7 7 7 7 7 6 5 5 5 5 5 6 6 7 7 6 6 6 5 4 3 3 2 2 1 1 2 2 4 5 5
0 0 2 1 0 1 0 0 0 1 2 2 1 2 2 1 3 3 4 1 6 7 9 13 13 12 4 3 5 6 9 10 20 32 32 30 29 29 27 25 23 22 20 19 18 19 19 18 18 16 15 14 14 12 12 11 11 11 11 10 9 9 9 8 7 7 7 7 7 7 7 6 5 5 5 5 5 5 5 6 6 7 7 6 6 5 4 4 3 2 1 1 1 2 4 5 5
5 3 2 1 0 1 1 1 1 1 0 1 1 2 2 0 3 2 3 2 5 5 9 13 16 12 4 5 6 9 13 17 26 30 29 28 28 28 27 25 23 22 21 20 19 19 19 19 18 17 15 15 14 13 12 12 12 11 11 10 10 9 9 8 7 7 7 7 7 7 7 6 5 5 5 5 5 5 5 4 5 6 7 7 7 6 5 5 4 3 2 1 1 2 4 5 5
5 1 1 1 1 0 1 1 1 2 2 1 1 2 3 1 3 2 2 3 3 6 11 11 16 7 5 9 7 15 20 23 27 27 27 26 27 28 26 24 23 22 21 20 19 20 20 19 18 16 15 15 14 13 13 12 12 11 11 11 10 9 8 8 8 8 8 7 7 7 6 6 5 5 5 5 5 5 5 4 5 5 5 6 8 8 7 6 5 4 3 2 2 3 4 4 5
2 2 3 0 1 1 1 1 2 1 2 2 3 4 4 3 2 1 2 4 5 11 11 10 15 3 7 15 14 23 25 25 27 26 27 26 27 27 26 25 23 22 21 20 20 20 20 19 18 17 16 15 14 14 13 13 13 12 12 11 10 9 9 9 9 8 8 8 7 6 6 5 5 5 5 5 5 4 4 4 4 3 4 5 7 8 8 7 6 5 4 4 3 4 5 5 5
1 2 2 1 1 2 2 4 3 2 3 3 5 7 4 1 3 2 4 6 9 14 8 9 13 3 7 16 20 28 26 26 27 26 27 26 27 27 26 25 24 23 22 21 21 21 21 20 19 18 17 16 16 15 14 14 13 13 13 12 11 10 10 9 9 9 9 8 7 7 6 5 5 5 5 5 5 4 4 4 3 2 3 3 5 6 8 8 7 6 6 5 5 5 5 5 6
2 2 1 2 2 2 3 5 4 3 4 5 8 10 5 2 5 5 4 6 10 12 6 9 8 2 8 16 23 28 27 28 27 26 28 27 28 28 27 26 25 24 23 22 22 22 21 20 19 18 18 17 16 15 15 14 14 14 13 13 12 11 11 10 10 9 8 8 7 7 6 5 4 4 4 5 5 5 5 5 4 4 3 3 3 4 6 7 7 6 6 5 5 5 5 5 7
4 3 1 3 3 3 4 6 5 3 5 7 9 11 7 4 7 7 3 5 9 8 3 7 7 7 12 18 25 28 28 27 25 26 27 28 29 29 29 27 26 25 23 23 23 23 22 21 20 18 18 17 17 16 15 15 14 14 13 13 12 12 11 10 10 8 7 7 7 7 6 5 4 4 4 5 5 5 5 5 5 4 4 3 3 3 4 5 6 6 5 5 4 4 5 6 7
5 3 1 4 4 2 2 8 11 6 6 9 7 9 7 5 7 5 3 5 6 6 7 9 12 17 19 22 27 27 27 25 23 25 26 28 29 28 28 27 27 25 23 23 23 23 22 21 20 19 18 18 18 17 16 15 15 14 14 14 13 12 11 10 9 8 7 7 7 6 5 5 5 5 5 6 5 5 5 5 5 5 4 3 2 3 3 4 6 6 5 5 4 4 4 6 7
4 5 3 3 3 1 2 9 12 8 10 12 8 7 5 6 8 5 5 6 2 7 14 15 18 23 25 26 28 27 26 24 23 23 24 27 28 27 27 25 25 23 22 22 23 23 22 21 20 19 18 18 19 18 17 16 15 15 14 14 13 12 11 11 10 8 8 7 7 6 6 6 6 5 5 6 6 5 5 5 5 5 4 3 2 2 3 4 5 6 6 5 4 5 5 5 7
3 4 6 4 3 1 2 9 10 9 12 13 9 7 6 7 8 7 7 6 3 8 17 18 20 24 26 28 28 27 26 24 24 23 25 27 27 27 26 25 23 22 23 23 23 22 22 21 20 19 19 19 19 18 17 16 16 15 15 14 14 13 12 12 11 10 9 8 8 7 6 6 7 6 4 5 6 5 5 4 5 4 4 3 3 4 4 5 5 6 7 6 6 6 6 6 7
2 4 5 3 3 3 5 9 10 13 15 11 10 8 9 8 5 8 11 7 1 6 15 16 19 23 24 27 27 28 27 25 25 24 25 26 27 27 26 26 24 23 23 22 23 22 22 21 20 20 20 19 19 19 18 16 16 15 15 15 14 14 13 13 12 11 10 10 9 9 8 7 8 8 7 6 5 5 4 4 4 3 2 2 2 4 5 6 6 6 8 8 8 9 8 8 8
5 3 1 2 4 5 8 11 11 15 15 12 11 9 10 9 4 6 12 11 2 4 12 15 20 23 24 27 27 28 27 26 25 24 23 23 24 24 23 23 22 22 22 22 23 22 22 21 20 20 20 20 19 20 18 17 16 15 16 16 15 14 14 14 12 12 11 11 11 11 10 9 9 9 9 7 6 6 5 4 3 2 2 2 2 4 4 5 6 6 7 8 10 11 11 10 9
6 3 0 3 6 7 9 12 13 13 11 11 11 7 10 10 3 3 13 14 5 4 9 15 23 26 27 28 27 27 27 26 26 24 22 20 19 20 21 21 21 22 22 22 22 22 22 21 21 20 20 20 20 20 19 18 17 16 17 17 15 15 15 14 13 13 13 13 13 12 12 11 11 10 10 9 9 9 7 7 6 4 4 3 4 4 4 5 6 6 7 8 9 10 11 10 10
7 5 3 4 5 8 9 10 12 10 8 10 9 4 7 8 0 4 15 15 7 6 8 17 29 30 30 30 28 28 27 27 27 25 23 20 19 20 21 21 21 21 20 20 21 21 21 21 21 21 20 21 21 21 20 19 18 17 17 17 16 16 16 14 14 14 14 14 14 13 13 12 12 12 11 11 11 11 10 9 9 8 7 6 6 6 6 6 7 8 8 9 10 10 10 10 11
6 9 10 9 7 8 7 7 10 9 6 10 8 2 4 6 0 3 12 12 8 8 10 20 31 33 33 32 30 29 27 28 26 25 24 23 23 22 21 22 21 19 19 20 20 19 19 20 21 20 21 21 22 22 21 21 20 19 17 17 17 17 16 16 16 15 15 15 14 14 14 14 13 13 13 12 12 12 11 11 11 10 10 9 9 9 9 10 10 10 10 11 11 11 10 10 10
9 14 11 8 7 6 4 5 8 7 4 9 6 1 1 3 2 4 8 10 9 12 15 21 30 31 32 32 31 30 29 28 26 26 26 26 25 23 23 22 19 18 18 17 17 18 18 18 18 19 20 21 22 23 22 22 22 21 19 18 18 17 17 17 17 17 16 15 14 15 15 15 14 14 14 13 13 13 12 12 12 12 12 11 12 12 13 14 14 14 14 14 14 14 13 12 12
9 10 6 4 6 4 3 4 7 6 3 10 7 2 1 2 6 7 5 9 11 15 18 21 27 29 29 30 31 31 30 29 28 28 27 25 24 23 23 21 20 19 17 16 16 17 16 16 17 18 20 22 23 23 23 23 23 22 21 20 19 18 18 18 18 18 17 17 16 16 16 16 15 15 15 14 14 14 13 13 13 13 13 13 13 14 15 16 17 18 18 17 17 17 17 14 13
4 3 4 2 6 4 5 4 6 5 2 11 9 1 4 5 11 10 4 11 15 18 19 20 25 27 27 28 29 30 31 30 30 29 27 26 25 24 24 22 22 21 18 18 18 17 16 16 17 18 19 22 23 24 25 25 25 25 23 22 21 20 20 19 18 18 18 18 18 17 17 17 16 16 16 16 16 16 16 15 14 13 12 13 14 14 15 16 18 20 20 21 20 20 19 16 15
2 2 3 3 2 3 4 4 8 4 2 11 9 1 5 5 10 11 7 13 17 18 18 19 22 25 27 27 27 28 30 31 31 30 28 27 27 26 26 25 24 23 21 21 19 18 19 19 18 18 18 20 22 23 25 26 26 26 25 24 23 22 21 21 20 19 19 19 19 19 19 19 18 18 18 18 18 18 18 17 15 14 12 14 15 15 17 18 19 20 20 21 22 21 21 18 16
2 2 2 2 2 4 5 3 9 5 2 9 7 1 5 5 6 10 11 13 16 17 17 18 20 23 25 26 26 26 26 28 28 28 28 28 28 28 28 27 26 25 24 22 21 21 21 20 20 20 19 19 19 20 22 24 26 26 26 25 24 24 23 23 22 22 21 20 20 20 20 20 20 20 20 20 20 20 20 19 17 15 14 15 16 17 18 19 20 20 20 20 22 21 21 19 17
3 2 2 1 2 3 4 3 8 7 4 4 5 1 3 4 3 9 14 15 16 15 15 17 19 20 23 25 26 26 25 24 25 26 27 27 28 29 29 28 28 27 25 23 22 21 21 21 21 22 22 21 20 19 19 21 23 24 23 23 23 23 24 23 22 21 21 20 20 20 20 20 20 20 21 22 22 20 20 19 18 17 16 16 17 17 19 19 20 20 19 19 20 22 22 21 19
3 1 1 2 3 2 2 2 5 7 4 2 4 3 5 3 3 7 15 16 16 15 16 18 19 20 21 22 24 26 26 26 25 25 24 25 26 27 28 28 29 29 28 27 25 23 22 21 21 22 23 24 23 22 21 21 21 21 20 20 21 22 22 21 19 19 18 18 18 17 17 17 17 18 20 20 20 19 19 19 18 17 17 18 18 18 18 19 19 20 19 19 19 21 23 22 21
4 3 2 2 2 2 4 3 4 8 3 3 5 4 9 6 2 5 12 15 16 15 17 19 20 21 22 22 23 24 25 27 28 26 23 24 24 24 26 26 27 29 29 29 27 25 24 23 23 22 22 23 24 24 24 23 23 22 21 20 20 21 21 19 18 18 17 17 16 15 15 15 15 16 17 18 19 18 18 18 18 17 17 18 19 20 19 19 19 19 20 20 20 20 22 24 22
7 7 4 3 3 4 5 3 4 8 4 3 6 5 8 7 2 4 10 14 16 14 14 16 18 20 22 22 23 23 24 27 28 26 24 23 24 24 24 24 25 26 27 26 24 23 22 22 22 23 23 24 25 26 26 26 26 25 23 22 22 22 21 20 20 20 19 18 17 15 15 15 15 15 16 17 18 19 18 18 17 17 18 19 20 21 21 21 21 20 20 21 21 20 21 23 23
6 5 4 4 4 5 4 2 3 7 5 4 6 5 7 6 3 4 9 12 12 13 12 14 17 19 21 23 24 24 23 24 23 23 23 24 24 24 23 24 24 25 25 24 23 22 21 21 21 23 23 25 27 28 28 28 28 26 25 23 21 19 19 21 22 22 22 20 18 17 17 17 17 17 17 18 19 20 20 19 19 19 20 21 21 21 22 22 22 21 21 21 22 22 21 21 22
4 4 4 5 5 5 5 3 4 7 5 3 4 4 8 7 4 4 9 10 10 14 14 14 18 19 21 22 24 25 23 22 20 19 20 22 23 23 23 23 25 26 27 26 26 25 23 21 21 22 22 23 25 26 27 28 28 27 26 23 20 18 18 20 23 23 24 23 22 21 20 20 20 19 19 19 20 22 22 23 23 23 23 23 23 23 24 23 23 22 21 21 22 23 22 20 20
4 3 2 4 3 2 4 1 3 6 3 2 3 4 8 7 5 4 8 9 10 14 16 16 18 19 21 23 23 24 24 23 21 18 17 18 20 21 20 22 24 25 25 25 25 25 24 23 23 23 22 23 23 24 27 27 28 28 28 26 25 23 23 24 26 26 27 27 26 25 24 23 23 22 22 21 22 23 25 27 27 27 27 27 27 27 27 25 24 23 22 22 22 23 23 21 20
4 4 3 4 4 4 3 3 2 4 2 1 4 3 6 5 4 4 8 12 10 11 14 15 17 19 21 23 23 23 23 22 21 18 16 15 16 17 17 19 20 21 22 23 22 22 23 23 24 23 22 22 22 23 25 25 27 30 31 30 29 29 29 30 31 31 30 30 29 28 28 26 25 25 24 24 25 26 28 28 27 26 26 27 27 28 28 27 26 25 22 23 23 23 24 22 20
5 6 6 6 6 6 3 2 3 3 2 2 5 2 5 4 4 6 5 9 10 10 12 13 16 18 19 19 21 22 22 21 19 17 16 15 16 17 16 16 17 17 19 19 19 19 19 20 20 19 19 20 21 22 23 25 28 31 33 34 33 34 34 34 35 34 32 31 30 29 29 28 28 27 27 26 27 29 30 29 28 28 27 27 27 28 29 28 27 26 24 24 25 25 24 23 21
3 6 13 11 7 7 6 7 6 4 2 3 4 2 5 4 4 7 3 4 7 8 9 13 17 17 17 18 20 21 20 20 19 17 16 15 16 17 17 17 17 16 15 15 15 16 16 16 16 16 17 18 20 21 23 27 30 32 34 35 35 36 37 37 36 34 32 31 30 29 29 29 29 29 28 28 29 31 32 32 32 31 30 28 27 28 29 28 28 27 26 25 26 26 24 23 23
3 6 12 10 8 9 10 10 6 3 3 4 4 4 4 5 5 7 4 5 7 6 6 12 17 18 19 20 21 21 20 20 19 18 17 16 17 17 18 18 18 16 14 14 14 15 14 14 14 15 15 16 17 18 21 25 29 31 33 35 35 36 37 37 35 33 33 31 30 30 30 30 29 29 29 28 28 29 30 31 32 31 30 29 28 28 29 29 29 29 28 28 27 27 26 25 25
3 4 10 12 11 12 13 10 4 3 2 2 1 4 1 4 6 5 4 6 7 6 7 10 14 19 20 21 22 22 21 20 19 18 17 17 17 18 18 18 17 17 16 16 16 16 16 16 16 16 15 15 15 15 16 19 22 25 27 28 30 31 32 32 30 30 30 29 30 29 29 29 28 28 29 25 24 25 26 27 28 27 27 28 28 28 29 29 31 31 32 31 29 27 26 26 26
6 2 9 11 10 10 9 7 2 1 3 2 3 2 1 5 6 4 2 5 7 9 11 10 13 19 21 21 22 22 21 19 18 18 16 15 16 17 17 17 17 18 19 19 18 17 17 17 17 17 17 16 16 16 16 17 18 19 21 22 24 25 25 25 25 25 25 26 27 27 27 27 25 25 25 20 20 24 24 24 24 24 24 25 26 28 28 29 30 31 32 31 28 27 27 26 27
3 4 8 7 7 7 5 5 4 4 2 3 5 4 2 4 6 3 2 3 9 11 10 9 13 19 20 21 22 22 21 19 17 16 14 14 14 14 15 16 17 18 19 19 17 16 15 16 17 17 16 15 14 14 13 13 13 15 16 18 19 20 20 20 20 20 21 21 23 23 22 22 21 22 22 18 18 22 21 21 22 21 22 23 25 26 27 27 28 29 29 29 27 27 28 28 29
4 7 9 10 8 6 5 3 4 4 2 4 6 8 3 2 5 4 3 3 6 8 7 6 11 16 21 22 22 22 21 19 17 15 13 12 12 13 14 15 15 15 14 14 13 13 13 13 13 13 13 12 11 11 12 12 13 14 14 15 16 17 17 17 17 18 19 19 20 20 19 20 21 23 23 21 20 21 21 21 21 20 21 21 23 25 26 27 26 26 27 27 27 27 28 29 30
5 4 6 7 4 4 5 4 3 3 5 4 5 8 6 2 6 5 5 5 3 4 7 8 11 16 22 24 23 23 22 20 17 16 14 13 12 12 12 12 12 12 12 11 10 10 10 10 10 11 11 11 12 13 13 14 15 16 16 16 17 17 17 17 18 19 19 19 19 20 21 22 24 25 25 24 23 23 23 22 22 22 22 22 23 24 25 26 25 24 25 26 26 27 28 28 28
5 4 6 6 2 3 2 1 0 3 6 3 5 7 5 6 9 5 5 8 6 6 9 11 14 19 24 25 25 24 22 20 18 16 16 15 14 13 12 11 11 12 12 10 10 10 9 9 10 11 12 13 14 14 14 14 15 15 16 17 17 17 17 18 18 18 19 20 21 23 24 25 26 27 27 27 26 25 25 25 24 23 23 23 24 25 24 24 24 24 25 27 28 29 28 27 26
5 6 5 4 4 3 1 2 1 3 5 2 4 7 1 6 7 4 5 8 12 14 15 17 18 20 24 27 26 25 23 22 19 18 17 16 15 13 12 12 12 12 11 10 10 10 10 11 11 11 12 13 14 14 15 15 15 15 15 16 17 17 17 17 18 20 21 22 23 24 25 27 28 29 29 29 29 28 27 26 25 24 23 23 23 25 25 24 25 25 25 28 31 31 29 26 25
4 4 5 5 5 5 4 4 3 3 3 2 2 4 3 4 4 5 7 10 14 17 17 16 15 17 20 22 23 23 24 23 21 19 18 18 16 14 13 13 13 13 12 11 10 10 11 12 12 12 13 13 13 14 15 16 15 15 15 16 16 17 18 19 20 22 23 24 26 26 27 28 29 29 30 30 30 29 27 26 26 25 24 24 24 25 25 24 24 24 24 27 30 30 29 27 25
2 2 5 3 5 5 3 3 5 4 2 1 1 3 4 5 4 4 4 5 6 9 11 12 13 15 17 19 22 24 25 24 22 21 20 19 17 15 14 13 14 14 13 12 11 11 12 13 13 14 14 14 15 15 16 16 15 15 15 16 17 18 19 20 22 23 24 25 26 27 28 28 29 30 31 31 30 28 28 27 26 25 24 24 25 25 25 23 23 23 24 27 29 27 27 28 28
1 2 3 4 4 7 5 2 1 3 3 1 1 3 4 4 4 5 5 5 4 3 8 12 14 17 18 21 24 25 27 26 24 22 20 19 17 15 14 13 13 14 14 13 13 13 14 14 14 14 14 15 15 15 15 13 13 14 15 16 18 20 22 23 24 25 26 27 28 29 29 30 31 31 30 30 29 28 27 27 26 26 24 24 23 23 23 22 23 24 25 25 26 26 26 27 28
4 2 5 3 3 5 4 2 3 3 2 2 1 3 4 2 2 5 6 4 2 1 5 8 12 16 19 22 25 26 28 27 25 23 21 19 18 16 15 14 14 15 15 15 15 15 15 14 14 14 14 14 13 13 12 12 14 15 16 18 20 21 23 24 25 26 27 28 29 30 30 31 30 29 28 28 29 28 28 28 28 27 26 24 23 22 23 23 24 26 26 24 24 25 26 26 26
4 4 3 3 3 1 1 2 1 1 1 3 3 3 3 3 4 4 3 3 3 3 4 6 9 14 18 22 25 26 27 27 26 25 23 21 19 17 17 16 16 16 16 17 17 16 15 14 14 13 13 13 12 12 13 14 14 14 16 17 17 18 19 21 22 23 24 26 27 28 28 28 28 26 25 26 27 28 28 28 28 28 27 25 24 22 22 23 24 26 26 25 24 24 26 28 27
4 3 2 2 3 4 2 2 2 2 2 2 3 4 3 5 5 4 6 7 6 6 6 6 9 15 20 23 25 26 27 28 27 26 24 22 21 20 18 17 16 16 17 17 16 15 15 15 15 14 14 13 13 14 15 15 14 14 17 18 18 18 19 20 22 23 24 24 24 25 25 25 25 25 24 24 25 26 26 27 27 27 27 26 25 24 23 24 25 26 26 26 25 25 27 28 28
3 2 1 0 2 2 2 1 2 3 4 3 1 2 5 6 4 5 7 8 8 9 8 7 10 17 21 24 26 27 28 28 27 26 24 23 22 22 20 18 17 17 17 17 16 16 16 16 16 14 14 14 15 16 14 13 13 15 18 19 20 21 22 23 24 24 24 23 22 22 23 24 24 24 24 24 24 24 25 26 26 26 27 27 27 26 25 25 26 26 27 28 28 28 28 29 29
6 5 4 3 3 4 3 0 1 2 4 4 4 2 6 6 3 5 6 7 8 9 8 7 12 18 22 25 26 27 27 28 27 26 24 23 24 23 21 19 18 18 18 17 17 18 18 17 16 15 15 16 15 13 12 12 15 17 19 19 20 21 23 24 24 24 24 22 21 20 21 22 23 24 24 24 24 24 24 25 25 26 26 27 27 27 27 27 27 28 28 29 30 30 30 31 31
Wind_Direction
176 176 174 168 165 163 166 164 165 228 190 268 225 239 228 150 119 182 188 123 59 222 191 150 152 149 135 163 172 161 145 162 174 155 200 244 155 164 171 169 170 171 171 172 175 177 177 180 185 184 180 173 167 161 162 159 155 153 150 152 150 146 144 140 140 138 135 135 138 135 133 132 130 127 129 136 145 152 145 124 98 91 89 106 100 79 62 52 62 54 44 39 34 30 34 25 12
178 175 167 162 165 161 164 171 248 223 182 283 234 214 178 46 165 199 182 152 191 192 169 153 151 152 145 152 152 132 150 174 185 189 266 167 155 160 168 168 170 171 171 173 175 178 177 180 182 176 173 168 164 159 155 153 151 151 150 152 150 147 144 141 142 140 137 138 140 135 132 129 126 122 125 138 158 165 138 102 93 100 98 120 114 94 81 68 78 83 75 61 58 40 38 34 16
176 172 165 159 165 167 160 165 240 157 191 255 256 254 142 314 197 210 156 134 163 158 151 152 150 143 128 140 152 144 169 187 192 209 116 155 160 160 165 167 169 170 172 174 175 178 178 176 173 170 171 168 164 157 148 150 152 151 151 150 149 146 144 145 145 144 142 142 143 136 133 130 125 118 115 119 133 138 112 100 96 109 122 129 116 99 89 81 84 89 87 74 71 59 49 46 25
172 173 170 161 162 174 140 147 240 156 202 228 261 246 181 208 211 36 147 117 135 151 146 149 149 134 136 151 161 138 169 188 199 221 166 163 164 159 163 167 170 172 174 175 175 176 175 171 168 169 172 170 164 153 147 150 151 151 149 148 147 144 143 147 147 146 144 144 144 139 134 129 126 120 117 121 132 141 128 120 114 123 142 134 118 105 101 98 99 96 89 75 69 62 56 47 34
174 174 171 164 158 167 154 177 178 162 219 207 260 242 179 176 290 67 149 135 151 154 154 155 144 147 150 161 162 115 172 178 200 210 181 168 164 159 162 167 171 174 176 176 175 174 172 167 166 169 173 172 161 151 150 148 148 149 149 149 146 144 144 148 148 145 143 144 144 139 137 133 130 127 125 129 138 150 145 136 131 139 152 143 128 115 114 113 113 106 93 75 55 42 38 31 23
178 170 169 171 171 170 162 244 191 209 228 203 267 269 76 174 233 159 135 127 157 155 160 164 158 167 148 137 168 1 155 171 201 198 188 167 163 161 163 167 171 174 176 176 174 172 169 167 167 168 174 174 158 151 150 147 148 148 149 151 147 145 145 147 148 145 143 141 141 138 140 139 136 134 133 137 145 153 152 145 141 146 152 145 131 119 118 117 119 113 99 74 33 18 20 24 16
179 168 171 182 188 158 148 225 198 229 211 222 265 292 314 202 230 192 139 127 158 162 166 178 158 157 141 134 156 43 163 219 207 193 185 166 163 163 164 168 172 174 175 175 172 170 168 167 167 167 174 175 161 154 153 152 151 150 151 154 152 149 147 150 151 149 145 141 140 139 140 144 144 147 149 150 156 160 157 152 150 150 151 144 130 120 119 122 125 118 101 74 349 340 356 4 0
178 169 166 183 219 135 121 213 205 235 218 267 265 286 269 222 256 195 135 122 164 176 176 185 154 144 6 128 130 97 179 217 194 193 177 166 165 164 166 169 172 174 174 172 170 169 169 168 166 167 173 175 165 159 156 155 155 156 157 158 159 155 152 153 154 152 147 143 145 146 146 146 146 150 153 156 162 166 162 157 155 153 152 151 141 131 132 138 134 116 77 35 358 359 2 356 356
171 167 121 127 327 78 107 247 214 227 262 304 282 286 274 271 285 247 73 95 145 171 174 183 166 153 92 93 93 135 200 216 187 186 172 166 166 165 167 170 172 172 171 170 170 169 169 168 165 165 172 174 167 162 159 158 159 160 161 163 166 161 156 155 155 154 150 149 152 152 149 145 145 147 153 161 166 166 166 161 156 155 157 161 159 155 154 155 136 87 45 30 31 29 19 11 9
164 156 133 147 21 104 158 275 247 240 283 308 303 297 313 333 330 12 62 84 77 130 166 175 165 140 125 83 74 139 229 213 192 179 168 166 166 166 167 171 172 171 169 169 170 169 169 167 165 166 173 175 169 165 163 162 162 163 166 166 168 165 160 157 155 155 155 154 153 150 149 147 146 150 154 160 165 167 168 165 162 163 164 168 174 176 177 165 148 346 46 31 25 21 23 21 13
155 146 157 125 94 172 204 223 235 284 304 306 316 312 313 335 21 23 27 346 347 111 156 170 151 129 115 71 77 136 198 210 201 173 164 164 166 168 169 170 172 172 169 169 170 170 169 167 166 170 175 175 169 169 167 163 163 166 169 166 168 169 163 158 156 160 159 154 151 148 146 145 145 150 154 156 161 167 171 170 167 169 172 176 182 188 193 201 234 246 266 346 4 12 26 27 17
61 81 89 89 126 185 219 168 174 304 314 307 2 328 310 356 35 45 17 339 134 125 160 178 161 138 102 37 129 171 183 193 185 167 161 164 167 169 170 170 171 172 172 171 172 171 170 168 169 176 177 174 170 171 169 165 165 168 168 167 169 170 165 159 159 162 160 154 150 146 141 140 143 147 151 154 154 160 170 175 173 174 177 180 184 191 199 208 221 231 253 314 359 18 25 19 9
125 18 84 81 199 159 168 120 224 353 326 324 45 315 289 85 26 34 355 351 139 132 169 181 167 146 95 84 140 166 171 169 168 163 161 164 168 169 170 171 170 172 174 176 175 174 172 171 175 178 177 173 171 172 171 169 169 169 169 168 170 172 167 162 162 163 162 158 151 144 139 136 138 142 147 152 152 155 163 173 179 181 182 184 189 195 202 211 220 225 248 295 352 16 9 360 355
189 202 155 141 4 164 131 123 295 59 258 308 49 287 226 87 353 356 343 95 124 142 167 177 170 151 116 125 148 172 160 159 163 162 163 166 169 169 171 172 172 173 176 179 179 178 176 177 179 177 176 174 172 174 174 174 171 172 172 170 173 175 170 167 169 169 167 162 156 150 143 137 134 137 139 146 153 154 155 166 178 185 187 189 194 198 206 215 221 227 253 291 332 358 352 349 350
208 231 98 132 43 105 136 176 196 135 204 232 178 228 191 271 321 331 353 105 82 149 156 167 170 160 171 168 174 172 157 155 163 165 167 169 170 170 172 173 174 176 179 182 182 182 180 182 181 177 177 175 175 177 175 175 175 179 180 174 173 175 173 172 172 170 168 167 166 161 153 146 141 137 135 140 148 150 151 154 158 168 183 192 198 202 208 214 221 233 250 274 297 329 336 335 343
232 35 67 11 336 187 227 177 131 142 216 177 170 177 179 275 277 36 60 102 104 149 151 159 167 196 199 175 162 161 155 156 164 169 171 170 171 171 174 176 177 179 182 185 185 185 184 185 183 179 179 178 179 180 179 181 182 183 182 176 173 175 179 178 174 170 170 171 173 172 167 159 151 142 134 136 140 145 149 150 152 153 163 181 196 203 209 213 221 235 249 267 286 307 318 324 333
232 70 88 309 255 211 217 179 171 178 186 152 169 175 163 265 194 132 94 105 130 156 158 161 173 255 197 168 154 155 155 160 167 172 172 171 172 173 176 179 180 182 186 187 187 188 187 188 186 182 181 181 182 182 186 186 184 183 179 176 176 178 182 183 180 176 173 175 178 179 177 172 169 159 145 141 137 141 149 148 158 165 159 170 187 196 204 211 221 232 246 263 279 299 312 324 333
192 91 116 255 219 219 199 186 193 165 163 165 179 182 166 160 177 153 113 108 136 157 163 166 182 277 179 162 153 157 158 164 172 175 174 174 174 175 178 181 183 186 188 189 190 189 189 190 188 184 183 185 185 186 188 187 186 184 180 178 179 180 181 183 184 182 179 178 180 180 179 183 186 180 168 161 149 148 156 151 148 155 158 158 171 185 195 201 211 223 236 253 268 288 303 317 326
179 126 145 235 208 215 191 168 178 173 165 167 178 184 179 181 175 160 137 119 135 143 132 154 144 124 156 160 158 162 164 169 177 179 179 178 177 178 180 182 185 188 189 190 190 189 190 191 190 187 186 189 189 189 189 187 189 189 184 182 183 184 183 183 184 184 183 180 177 176 180 189 198 204 196 185 173 163 161 159 150 148 152 148 155 176 186 186 195 207 215 230 250 278 298 314 318
197 170 239 246 224 222 179 165 179 197 168 156 165 180 191 198 177 172 149 124 137 154 152 151 140 140 152 160 164 167 169 173 178 181 183 181 180 181 182 184 186 188 189 191 191 191 191 191 191 188 190 194 193 192 191 190 193 192 189 187 187 190 189 188 189 187 186 183 179 178 184 193 203 212 207 193 182 169 166 168 159 153 156 150 151 177 186 188 191 196 203 216 236 270 293 314 315
174 173 210 230 199 126 183 182 185 197 172 158 148 160 201 199 183 195 152 133 188 192 181 179 165 158 158 162 169 171 171 174 177 183 184 184 184 185 187 188 188 188 190 194 194 193 192 192 194 192 194 199 197 196 194 194 197 194 192 192 192 195 196 196 197 197 193 192 191 194 198 197 197 202 204 193 183 174 169 171 172 171 171 171 186 202 203 210 210 206 212 222 238 262 277 301 309
152 207 229 208 172 125 187 186 183 180 161 152 145 158 191 183 188 207 183 172 219 195 188 192 180 168 166 168 172 173 174 175 178 184 188 188 188 188 190 191 191 192 194 196 195 195 194 194 197 198 200 203 203 200 198 198 201 199 195 196 198 199 202 203 203 203 203 202 201 206 212 207 202 207 215 204 194 182 163 158 170 183 193 200 222 232 229 234 236 231 234 240 247 259 266 281 297
194 258 245 200 158 127 159 168 172 166 154 156 165 176 175 166 202 213 206 208 183 176 185 190 184 175 172 172 175 176 176 177 180 184 188 191 191 191 192 192 194 193 194 196 197 198 197 198 200 202 205 207 207 205 203 203 206 204 201 202 203 203 206 208 208 206 208 212 212 216 220 217 217 225 234 230 218 200 180 163 163 175 193 202 241 253 248 244 247 246 247 251 254 259 263 272 284
202 288 278 124 106 120 155 156 163 165 161 173 172 171 173 170 198 208 215 219 192 168 182 186 184 177 175 176 178 180 179 179 181 183 187 192 194 196 196 196 197 196 198 198 199 202 202 203 204 206 209 210 211 210 208 208 211 211 207 208 207 208 211 212 212 213 216 221 224 227 229 227 226 231 233 235 241 239 233 225 211 202 204 213 261 278 275 252 242 245 253 256 258 262 265 271 277
200 252 310 109 90 113 148 149 155 166 165 173 167 169 183 180 178 204 218 217 207 194 185 185 181 178 180 181 183 184 184 185 184 184 186 189 193 198 200 201 202 203 204 202 203 205 206 208 208 211 213 213 214 215 215 213 215 216 215 214 212 213 216 217 218 221 225 229 233 236 237 236 233 235 235 234 241 246 249 249 251 253 248 247 260 280 287 263 244 246 255 259 263 265 269 275 276
201 188 83 94 92 113 140 143 151 166 165 166 167 181 191 185 130 249 223 217 211 200 184 181 179 179 182 185 188 188 188 190 190 190 188 188 192 197 199 201 204 206 208 207 210 211 211 213 214 216 217 217 217 218 220 218 219 220 220 220 218 220 221 221 223 226 231 234 238 240 240 240 239 242 242 240 240 242 246 250 258 267 272 273 276 287 285 271 256 253 257 261 267 269 274 281 283
178 137 78 78 97 111 140 150 156 165 169 173 171 181 202 189 163 269 225 218 212 187 171 177 177 179 184 186 191 193 195 195 195 195 194 196 198 200 199 200 202 205 209 211 215 216 217 218 219 222 222 223 222 222 223 222 224 224 224 225 224 226 226 227 228 230 234 237 240 241 243 244 244 246 247 246 243 243 247 251 257 265 275 279 282 293 293 283 275 268 268 269 271 274 280 285 293
151 131 79 57 82 91 138 163 168 163 170 188 169 75 153 160 213 255 221 209 204 177 165 174 177 179 183 187 191 195 200 201 200 200 200 202 202 205 205 203 202 202 207 211 214 216 218 222 224 226 228 228 228 228 228 227 228 228 228 229 229 231 231 233 235 236 239 241 242 242 246 250 249 248 248 247 245 248 253 257 261 264 274 281 284 292 295 293 288 281 278 277 276 279 284 286 294
141 130 80 24 42 55 176 169 182 177 182 186 155 51 268 188 228 246 225 197 187 171 166 171 178 181 183 188 193 197 202 205 206 208 208 207 207 210 211 211 210 208 210 211 211 212 215 220 224 228 229 230 231 232 233 232 232 232 232 232 234 235 235 238 240 242 245 246 246 244 248 251 251 250 248 249 249 252 259 265 268 267 274 280 284 289 293 296 295 288 280 275 276 279 283 282 285
108 78 75 69 19 346 205 161 170 176 200 181 157 310 258 232 232 242 224 183 174 168 169 171 178 183 185 190 194 199 204 208 212 215 216 216 215 216 217 218 218 219 219 217 217 216 218 222 226 231 232 233 234 234 235 236 235 234 235 235 237 239 241 245 248 250 253 253 252 249 250 250 251 251 250 252 252 255 261 267 269 268 272 276 279 284 288 294 299 297 285 273 273 277 278 279 280
67 41 48 78 57 295 249 155 150 150 218 180 152 325 268 257 240 234 218 186 175 171 173 175 179 184 189 192 194 199 205 210 217 220 222 223 224 225 225 225 225 225 225 224 226 225 224 227 232 235 237 239 239 239 240 240 240 238 237 239 240 242 245 250 255 259 260 260 258 253 252 253 255 257 257 258 259 260 265 269 268 266 270 276 279 282 285 289 296 303 298 281 274 274 274 274 279
49 86 347 15 143 277 301 181 164 150 192 176 148 322 263 283 252 212 205 195 185 182 182 183 184 187 192 196 198 200 203 208 215 221 224 227 228 229 230 230 230 230 229 231 235 235 235 237 241 242 243 244 244 245 246 246 246 244 243 244 246 248 250 253 258 262 263 262 261 258 256 258 260 263 265 266 267 268 269 271 269 266 271 277 282 285 287 289 292 298 304 295 279 272 271 271 277
5 96 179 235 179 272 314 216 189 156 112 175 182 263 248 306 307 192 192 196 191 192 196 195 195 195 196 199 202 204 204 206 209 214 220 224 227 230 232 232 232 232 232 232 236 240 243 246 248 248 249 250 249 250 250 251 250 249 247 248 249 250 251 253 255 258 262 262 263 262 260 261 264 265 266 267 269 271 271 270 268 267 272 277 281 284 286 289 290 292 301 304 289 273 268 270 276
307 47 143 241 190 213 283 274 205 157 113 190 203 256 246 289 352 178 187 193 191 195 206 209 209 208 207 207 208 209 210 211 211 211 214 218 223 228 232 234 234 234 233 233 235 238 242 247 249 250 252 254 253 252 253 254 255 254 252 249 248 248 247 248 250 254 258 259 261 261 262 265 269 271 271 269 268 269 269 269 268 269 274 278 281 282 285 285 286 289 296 305 300 280 268 268 276
224 219 226 253 193 224 247 255 190 162 140 179 175 238 255 275 356 178 190 192 193 200 208 214 218 219 219 218 219 218 218 219 219 218 217 217 219 223 227 231 233 234 235 236 237 240 242 245 248 250 252 254 255 254 254 255 256 255 253 250 248 245 244 243 246 250 252 254 256 259 265 270 274 277 276 272 268 267 268 269 270 272 276 280 282 282 283 283 284 288 293 299 302 291 272 266 274
200 219 198 180 190 241 242 235 191 162 144 196 187 220 256 269 275 196 197 194 199 209 213 216 220 223 225 226 227 227 227 227 225 226 227 227 226 225 225 226 228 229 231 233 234 236 238 241 246 248 249 251 254 254 253 252 253 254 251 249 248 245 244 244 246 249 251 253 255 259 266 270 272 274 274 270 266 265 265 266 267 270 274 277 280 280 279 280 282 285 288 292 297 298 283 268 270
185 219 222 203 205 248 252 239 200 155 148 217 200 223 264 263 255 211 194 194 204 212 216 220 220 222 225 227 228 228 229 230 230 232 234 237 237 235 232 229 225 222 222 226 229 234 238 242 244 246 248 251 254 254 253 252 251 252 250 248 251 254 255 255 253 253 254 256 258 261 265 268 269 269 269 267 264 265 264 264 265 266 270 274 277 280 280 279 278 279 282 286 290 295 292 277 269
175 195 230 235 219 246 250 205 183 160 167 231 177 220 264 261 262 219 185 190 208 211 212 218 220 222 224 225 227 226 227 231 236 238 238 240 240 240 240 235 228 225 223 226 232 239 244 247 248 247 246 248 254 256 255 254 253 253 253 252 255 260 264 266 265 263 261 262 263 264 266 268 268 268 268 267 266 267 266 266 268 270 273 275 277 281 284 282 278 277 280 284 288 289 291 285 271
193 174 203 250 218 232 273 219 155 160 183 261 165 203 258 266 267 228 193 201 216 215 217 222 223 223 223 224 226 226 228 232 238 241 239 239 239 239 240 233 229 229 229 233 239 245 249 252 256 254 246 246 253 257 255 256 255 255 256 257 258 259 263 268 270 270 267 266 266 265 266 267 268 268 268 268 268 269 269 271 273 275 276 277 279 281 284 283 280 279 282 286 289 287 285 283 272
198 167 160 246 192 155 252 264 141 143 145 168 153 196 275 281 282 259 214 214 222 223 226 233 232 231 231 231 231 231 231 234 238 240 238 237 238 237 235 228 226 228 233 239 244 248 252 256 258 255 249 250 255 256 257 259 259 258 259 260 261 261 264 267 268 269 269 267 267 266 267 268 268 269 270 271 272 272 273 275 277 275 274 275 277 279 280 282 281 280 282 288 290 287 282 279 274
227 192 191 226 198 161 180 173 112 77 35 113 107 41 305 274 256 266 232 213 225 231 229 237 239 240 242 239 238 237 237 239 241 238 232 232 234 233 229 224 225 230 233 238 243 249 255 257 256 254 253 255 258 259 260 261 260 259 260 260 260 261 262 263 265 267 270 270 271 271 272 272 271 272 273 274 274 274 276 280 281 278 276 275 274 275 275 277 280 278 279 286 290 290 284 276 274
280 217 209 211 184 142 125 130 109 56 315 240 116 72 293 293 259 250 220 184 222 227 223 234 241 242 242 241 242 242 241 241 241 237 230 229 230 226 225 224 227 233 236 240 247 252 257 257 255 255 256 258 259 260 261 262 262 261 262 262 263 263 263 264 267 271 275 277 278 279 278 277 276 275 276 277 276 277 281 284 284 281 278 275 273 273 272 272 273 272 275 283 288 290 286 276 272
315 236 202 184 145 133 141 148 136 118 224 239 152 157 266 314 285 245 197 186 226 226 217 232 238 240 240 241 245 245 243 243 239 235 231 228 226 224 225 227 230 234 237 242 248 251 254 255 255 254 253 254 256 259 261 261 262 263 264 265 267 268 268 270 272 276 278 281 282 281 281 280 279 279 278 277 277 279 281 281 281 280 276 274 273 274 273 271 270 269 271 276 281 284 281 274 271
266 237 151 150 149 152 163 158 154 174 159 342 73 134 311 304 275 254 178 184 232 239 230 231 228 232 238 240 245 245 242 241 239 236 234 230 228 229 233 237 240 242 242 244 247 252 256 257 255 251 248 250 255 260 262 262 263 263 265 266 267 268 269 272 275 277 278 280 280 280 281 281 282 282 279 279 281 280 277 275 274 274 273 275 277 278 276 274 272 271 270 271 274 276 274 271 270
264 239 129 150 156 150 156 144 110 45 89 354 293 127 124 270 278 320 114 187 239 238 228 226 219 224 231 235 240 242 240 240 239 237 236 234 233 234 238 243 249 251 249 249 252 257 259 256 252 250 250 253 259 263 264 263 263 264 265 266 267 268 270 274 276 277 277 277 278 278 279 280 280 280 281 284 286 282 279 277 274 272 273 275 278 279 277 275 273 272 269 267 268 269 267 266 268
293 66 88 84 79 86 93 110 92 49 59 240 228 168 170 268 279 327 72 207 239 234 224 221 218 219 225 232 235 238 239 240 240 239 237 237 237 239 244 248 250 251 249 250 253 254 253 252 250 249 252 256 260 264 263 263 264 266 267 268 270 272 273 275 276 275 276 276 277 278 278 279 278 278 283 289 287 282 280 280 279 277 277 277 277 276 275 273 272 271 268 265 265 265 264 262 265
104 74 76 66 48 57 55 43 82 73 311 252 185 165 145 314 278 225 175 221 231 218 210 207 214 218 222 229 233 235 237 238 239 240 239 238 238 241 245 245 244 243 241 242 243 243 246 249 248 248 251 256 263 270 273 274 275 273 274 275 277 279 279 279 278 277 279 279 279 279 278 278 278 280 286 292 289 285 281 278 278 277 277 277 276 273 269 266 266 268 267 265 263 262 262 262 263
108 90 98 85 32 29 41 358 47 112 258 267 165 157 133 223 264 236 221 276 297 197 199 200 202 210 217 224 230 232 233 235 235 236 234 231 228 229 231 229 226 222 223 226 228 232 239 244 247 250 255 262 270 278 281 281 278 275 276 278 280 282 283 280 279 279 278 277 276 276 276 277 280 284 288 290 289 289 286 281 278 276 276 276 274 272 268 267 268 268 267 266 266 264 263 263 261
104 118 103 92 53 35 57 274 255 201 244 254 161 152 133 232 256 261 236 262 272 224 210 209 204 204 210 219 225 226 227 229 230 228 226 223 218 216 218 218 215 213 215 219 221 224 232 240 249 254 259 265 270 275 279 276 271 267 268 272 276 279 279 276 275 275 273 273 272 273 275 279 282 286 288 290 292 292 288 284 281 279 279 277 276 274 274 276 275 269 266 267 268 266 263 262 260
150 146 125 115 112 97 155 228 279 251 257 283 153 155 184 273 266 249 225 244 249 237 224 216 212 206 207 213 219 222 224 225 225 223 220 219 216 214 218 220 218 217 216 216 219 225 234 239 242 247 253 260 265 267 267 265 261 261 263 268 272 274 274 274 274 275 274 274 274 274 276 279 281 285 289 293 296 294 289 285 283 281 280 280 280 280 280 280 277 274 273 273 271 268 265 265 265
178 169 136 141 151 153 188 202 190 210 257 327 114 155 202 241 241 230 238 255 253 242 228 213 208 208 207 209 213 219 223 223 222 222 219 218 218 219 223 227 225 221 218 217 222 228 234 235 235 239 245 250 255 255 256 259 261 264 267 270 272 274 275 276 276 276 275 273 273 273 274 277 281 286 290 294 295 293 290 288 287 286 285 284 284 285 287 287 285 283 281 276 271 269 266 262 258
216 150 115 152 183 151 138 182 178 163 123 60 172 200 217 224 255 289 292 285 265 228 204 184 182 192 196 201 208 215 221 221 221 221 220 218 219 224 227 229 227 224 221 224 227 229 232 235 236 242 248 250 252 252 254 258 261 265 270 274 279 282 282 282 280 278 277 275 274 274 276 280 283 287 291 293 293 290 289 290 290 289 288 287 285 285 286 286 285 282 275 269 267 267 265 260 252
172 124 171 213 174 119 110 163 113 98 134 184 221 258 299 306 291 324 7 21 33 120 163 162 168 177 184 195 205 212 217 220 220 220 219 217 217 221 222 222 223 222 224 228 230 233 237 242 246 251 254 254 254 254 255 261 267 275 282 287 289 290 288 286 283 281 279 278 277 278 280 282 284 288 290 291 289 287 287 288 288 288 287 285 284 282 281 280 278 275 271 269 269 269 269 266 260
121 188 209 193 119 92 104 141 32 46 181 251 295 249 289 321 285 317 357 30 43 115 151 153 164 172 181 194 203 210 215 217 219 220 220 217 216 219 217 216 219 218 224 229 232 237 244 251 255 255 255 254 254 255 260 270 279 287 293 296 296 294 290 286 283 281 280 279 278 279 280 282 284 287 287 285 285 284 285 285 285 286 285 284 282 280 278 277 274 273 274 274 273 270 268 267 263
123 177 172 113 132 167 56 134 139 106 204 284 311 289 264 212 226 284 292 205 198 205 175 158 168 178 185 195 202 208 213 215 218 220 221 218 217 219 216 216 218 218 223 228 232 241 251 255 255 254 254 254 255 262 273 281 287 296 304 308 310 305 299 294 291 289 287 285 283 282 282 284 285 286 283 281 281 281 282 284 284 285 285 284 282 279 277 275 274 274 275 276 276 272 268 265 261
64 94 98 65 129 163 169 142 158 164 165 240 307 329 280 225 217 214 214 205 190 193 196 186 186 188 190 196 201 206 210 213 216 218 220 220 218 217 216 219 222 222 224 230 236 246 251 251 250 250 251 255 264 276 284 287 293 305 312 314 317 315 312 308 306 303 299 294 290 287 285 285 285 283 280 277 276 277 280 282 284 285 285 285 283 280 277 276 275 274 273 274 274 273 270 266 262
98 105 182 293 87 126 156 102 81 122 143 174 203 308 270 251 214 189 202 203 194 195 197 196 196 193 195 200 203 206 209 211 214 217 221 221 217 215 217 221 223 224 228 235 241 246 246 245 245 250 259 271 281 285 285 287 295 303 306 308 311 314 315 314 313 310 306 301 295 289 288 287 285 283 278 274 273 275 277 280 283 285 286 286 284 280 278 276 275 274 272 272 271 271 269 267 263
153 165 186 174 134 123 126 300 312 98 122 164 158 202 268 261 205 198 203 192 195 203 198 196 198 195 198 203 205 208 210 209 212 217 221 219 214 214 217 220 223 227 234 240 244 245 244 245 251 262 272 278 280 281 283 290 297 299 300 302 305 309 312 313 311 309 307 305 298 293 292 290 287 285 280 274 273 274 278 281 283 285 286 286 284 281 278 275 274 273 271 270 269 269 267 265 265